QPF
0.03 0.03 0.02 0.02 0.02 0.03 0.05 0.06 0.05 0.05 0.05 0.04 0.02 0.02 0.01 0.01 0.01 0.01 0.01 0.01 0.01 0.01 0.02 0.02 0.03 0.02 0.02 0.01 0.01 0.01 0.03 0.03 0.02 0.03 0.03 0.02 0.02 0.02
0.02 0.03 0.03 0.03 0.03 0.04 0.05 0.06 0.05 0.05 0.05 0.04 0.02 0.01 0.01 0.00 0.01 0.01 0.01 0.01 0.01 0.01 0.01 0.02 0.01 0.01 0.01 0.01 0.01 0.01 0.01 0.01 0.01 0.01 0.01 0.01 0.00 0.01
0.02 0.02 0.03 0.02 0.02 0.03 0.05 0.05 0.05 0.05 0.04 0.03 0.03 0.02 0.01 0.01 0.01 0.01 0.01 0.01 0.01 0.01 0.01 0.01 0.01 0.00 0.00 0.00 0.00 0.00 0.01 0.01 0.01 0.00 0.00 0.00 0.00 0.01
0.03 0.03 0.03 0.02 0.02 0.02 0.03 0.05 0.05 0.05 0.04 0.04 0.03 0.02 0.02 0.01 0.02 0.02 0.02 0.02 0.02 0.02 0.01 0.01 0.01 0.00 0.00 0.00 0.00 0.01 0.01 0.00 0.00 0.00 0.00 0.00 0.01 0.01
0.03 0.03 0.02 0.02 0.02 0.02 0.02 0.02 0.04 0.05 0.05 0.05 0.05 0.05 0.04 0.03 0.03 0.02 0.02 0.02 0.02 0.02 0.02 0.01 0.01 0.01 0.00 0.00 0.00 0.00 0.00 0.00 0.00 0.00 0.00 0.00 0.01 0.01
0.02 0.02 0.01 0.01 0.01 0.01 0.01 0.01 0.02 0.03 0.02 0.03 0.04 0.05 0.04 0.03 0.02 0.02 0.01 0.02 0.02 0.02 0.02 0.01 0.01 0.01 0.00 0.00 0.00 0.00 0.00 0.00 0.00 0.00 0.00 0.00 0.00 0.01
0.02 0.02 0.02 0.02 0.01 0.01 0.01 0.01 0.02 0.01 0.01 0.01 0.02 0.02 0.01 0.01 0.01 0.01 0.01 0.02 0.02 0.02 0.02 0.02 0.01 0.01 0.01 0.00 0.00 0.00 0.00 0.00 0.00 0.00 0.00 0.01 0.01 0.01
0.01 0.01 0.02 0.02 0.01 0.02 0.01 0.01 0.01 0.01 0.02 0.02 0.01 0.01 0.01 0.01 0.01 0.01 0.01 0.01 0.02 0.02 0.02 0.02 0.02 0.01 0.01 0.01 0.01 0.00 0.00 0.00 0.00 0.00 0.00 0.00 0.01 0.00
0.01 0.01 0.02 0.02 0.01 0.01 0.01 0.01 0.01 0.01 0.01 0.01 0.01 0.01 0.01 0.01 0.01 0.01 0.01 0.01 0.02 0.02 0.02 0.02 0.02 0.01 0.01 0.01 0.01 0.01 0.00 0.00 0.00 0.00 0.00 0.00 0.00 0.00
0.02 0.01 0.01 0.01 0.01 0.01 0.01 0.00 0.00 0.01 0.01 0.01 0.01 0.01 0.01 0.01 0.01 0.01 0.01 0.01 0.02 0.03 0.02 0.02 0.02 0.02 0.01 0.01 0.00 0.00 0.00 0.00 0.00 0.00 0.00 0.00 0.00 0.00
0.01 0.01 0.01 0.01 0.01 0.01 0.01 0.00 0.00 0.00 0.00 0.00 0.00 0.00 0.00 0.00 0.00 0.00 0.00 0.01 0.01 0.01 0.02 0.02 0.02 0.02 0.01 0.01 0.01 0.00 0.00 0.00 0.00 0.00 0.00 0.00 0.00 0.01
0.01 0.01 0.01 0.01 0.01 0.01 0.00 0.00 0.00 0.00 0.00 0.00 0.00 0.01 0.01 0.01 0.01 0.01 0.01 0.01 0.01 0.01 0.02 0.02 0.02 0.02 0.02 0.01 0.01 0.01 0.00 0.00 0.00 0.00 0.00 0.00 0.00 0.01
0.02 0.01 0.01 0.01 0.01 0.01 0.01 0.00 0.00 0.00 0.00 0.00 0.00 0.00 0.01 0.01 0.01 0.01 0.01 0.01 0.01 0.01 0.01 0.01 0.01 0.02 0.02 0.02 0.02 0.01 0.01 0.01 0.00 0.01 0.01 0.00 0.00 0.01
0.01 0.01 0.02 0.02 0.01 0.01 0.01 0.01 0.01 0.00 0.00 0.00 0.00 0.00 0.00 0.00 0.01 0.01 0.01 0.01 0.01 0.01 0.01 0.01 0.01 0.02 0.02 0.02 0.02 0.01 0.00 0.00 0.01 0.01 0.00 0.01 0.01 0.01
0.02 0.02 0.02 0.02 0.02 0.01 0.01 0.01 0.01 0.01 0.00 0.00 0.00 0.00 0.00 0.00 0.00 0.01 0.01 0.01 0.01 0.00 0.01 0.01 0.02 0.03 0.03 0.02 0.02 0.01 0.01 0.01 0.01 0.01 0.01 0.01 0.01 0.01
0.02 0.02 0.03 0.03 0.02 0.01 0.01 0.01 0.01 0.01 0.01 0.01 0.01 0.01 0.01 0.01 0.01 0.01 0.01 0.01 0.01 0.00 0.00 0.01 0.01 0.03 0.03 0.03 0.03 0.02 0.01 0.02 0.02 0.02 0.01 0.01 0.01 0.01
0.02 0.02 0.02 0.01 0.01 0.01 0.01 0.01 0.01 0.01 0.01 0.01 0.01 0.01 0.01 0.01 0.01 0.01 0.01 0.01 0.01 0.01 0.00 0.00 0.01 0.02 0.04 0.03 0.03 0.02 0.02 0.03 0.02 0.02 0.01 0.02 0.02 0.01
0.02 0.03 0.03 0.02 0.01 0.01 0.01 0.01 0.01 0.01 0.02 0.02 0.02 0.02 0.02 0.02 0.01 0.01 0.01 0.01 0.01 0.01 0.01 0.01 0.01 0.02 0.03 0.03 0.03 0.03 0.02 0.03 0.03 0.02 0.01 0.01 0.01 0.01
0.03 0.03 0.03 0.02 0.02 0.01 0.01 0.01 0.01 0.02 0.02 0.02 0.02 0.02 0.02 0.01 0.01 0.01 0.01 0.01 0.01 0.01 0.01 0.02 0.02 0.03 0.03 0.02 0.02 0.03 0.03 0.03 0.02 0.02 0.01 0.01 0.01 0.01
0.02 0.03 0.03 0.02 0.02 0.02 0.01 0.01 0.01 0.02 0.02 0.03 0.02 0.01 0.01 0.01 0.01 0.01 0.02 0.02 0.02 0.02 0.02 0.02 0.02 0.03 0.04 0.03 0.02 0.02 0.03 0.03 0.02 0.02 0.01 0.01 0.01 0.01
0.02 0.02 0.02 0.01 0.02 0.02 0.02 0.02 0.02 0.02 0.02 0.02 0.02 0.01 0.01 0.01 0.01 0.02 0.02 0.03 0.02 0.02 0.02 0.02 0.02 0.03 0.03 0.03 0.02 0.02 0.03 0.03 0.02 0.02 0.01 0.01 0.01 0.01
0.03 0.02 0.01 0.01 0.01 0.02 0.02 0.02 0.03 0.02 0.02 0.01 0.01 0.01 0.02 0.02 0.02 0.03 0.03 0.03 0.03 0.03 0.03 0.03 0.02 0.02 0.02 0.02 0.02 0.03 0.04 0.04 0.04 0.02 0.02 0.01 0.01 0.01
0.02 0.02 0.02 0.02 0.02 0.02 0.02 0.02 0.01 0.01 0.01 0.00 0.01 0.01 0.01 0.02 0.03 0.03 0.03 0.03 0.03 0.03 0.03 0.03 0.03 0.02 0.02 0.02 0.02 0.02 0.03 0.05 0.05 0.05 0.03 0.02 0.01 0.01
MSLP
1023.34 1023.30 1023.30 1023.35 1023.47 1023.66 1023.92 1024.23 1024.58 1024.93 1025.27 1025.57 1025.81 1025.97 1026.04 1026.03 1025.95 1025.83 1025.68 1025.54 1025.42 1025.35 1025.31 1025.30 1025.30 1025.29 1025.26 1025.17 1025.03 1024.81 1024.55 1024.24 1023.91 1023.56 1023.22 1022.88 1022.55 1022.22
1024.31 1024.23 1024.16 1024.13 1024.16 1024.26 1024.43 1024.67 1024.97 1025.30 1025.63 1025.94 1026.19 1026.37 1026.46 1026.47 1026.40 1026.29 1026.15 1026.01 1025.90 1025.84 1025.84 1025.86 1025.92 1025.96 1025.98 1025.95 1025.84 1025.67 1025.43 1025.13 1024.80 1024.44 1024.07 1023.70 1023.32 1022.94
1025.33 1025.25 1025.16 1025.08 1025.05 1025.08 1025.19 1025.37 1025.62 1025.92 1026.23 1026.53 1026.79 1026.97 1027.06 1027.07 1026.99 1026.86 1026.70 1026.54 1026.41 1026.34 1026.32 1026.36 1026.42 1026.49 1026.54 1026.54 1026.47 1026.33 1026.11 1025.84 1025.52 1025.16 1024.79 1024.40 1024.01 1023.60
1026.36 1026.31 1026.23 1026.15 1026.10 1026.10 1026.17 1026.32 1026.53 1026.79 1027.08 1027.36 1027.60 1027.77 1027.85 1027.83 1027.73 1027.56 1027.36 1027.16 1026.99 1026.87 1026.81 1026.81 1026.85 1026.90 1026.95 1026.95 1026.90 1026.78 1026.59 1026.34 1026.04 1025.71 1025.35 1024.98 1024.59 1024.18
1027.35 1027.36 1027.33 1027.29 1027.26 1027.26 1027.32 1027.44 1027.63 1027.86 1028.12 1028.38 1028.59 1028.73 1028.78 1028.73 1028.59 1028.37 1028.12 1027.86 1027.62 1027.44 1027.31 1027.25 1027.23 1027.24 1027.25 1027.23 1027.17 1027.05 1026.87 1026.64 1026.37 1026.07 1025.74 1025.39 1025.02 1024.63
1028.26 1028.35 1028.39 1028.41 1028.43 1028.46 1028.53 1028.64 1028.80 1029.01 1029.23 1029.45 1029.62 1029.73 1029.74 1029.66 1029.48 1029.23 1028.93 1028.62 1028.32 1028.06 1027.86 1027.72 1027.63 1027.56 1027.51 1027.44 1027.34 1027.20 1027.02 1026.80 1026.54 1026.26 1025.97 1025.65 1025.31 1024.95
1029.07 1029.23 1029.36 1029.45 1029.52 1029.59 1029.67 1029.78 1029.92 1030.09 1030.27 1030.44 1030.58 1030.64 1030.63 1030.52 1030.33 1030.05 1029.73 1029.38 1029.04 1028.73 1028.46 1028.24 1028.07 1027.92 1027.79 1027.65 1027.50 1027.32 1027.11 1026.88 1026.62 1026.35 1026.07 1025.78 1025.47 1025.13
1029.76 1030.00 1030.19 1030.34 1030.46 1030.56 1030.65 1030.75 1030.86 1030.99 1031.12 1031.24 1031.34 1031.38 1031.34 1031.23 1031.04 1030.77 1030.45 1030.10 1029.75 1029.42 1029.11 1028.84 1028.59 1028.37 1028.16 1027.95 1027.72 1027.48 1027.22 1026.95 1026.68 1026.40 1026.11 1025.82 1025.52 1025.20
1030.35 1030.63 1030.88 1031.08 1031.23 1031.34 1031.42 1031.49 1031.57 1031.64 1031.72 1031.80 1031.85 1031.87 1031.83 1031.73 1031.57 1031.34 1031.06 1030.75 1030.43 1030.10 1029.79 1029.49 1029.20 1028.92 1028.64 1028.35 1028.05 1027.74 1027.42 1027.10 1026.77 1026.46 1026.15 1025.84 1025.53 1025.20
1030.86 1031.17 1031.44 1031.65 1031.81 1031.92 1031.98 1032.02 1032.04 1032.06 1032.09 1032.11 1032.13 1032.14 1032.11 1032.04 1031.92 1031.76 1031.55 1031.30 1031.04 1030.76 1030.47 1030.17 1029.87 1029.55 1029.22 1028.87 1028.50 1028.12 1027.73 1027.34 1026.96 1026.59 1026.24 1025.89 1025.55 1025.20
1031.31 1031.63 1031.90 1032.12 1032.27 1032.35 1032.38 1032.37 1032.34 1032.31 1032.28 1032.27 1032.26 1032.26 1032.24 1032.21 1032.15 1032.05 1031.92 1031.76 1031.57 1031.35 1031.10 1030.83 1030.53 1030.20 1029.83 1029.44 1029.01 1028.57 1028.12 1027.67 1027.23 1026.81 1026.40 1026.02 1025.63 1025.25
1031.72 1032.04 1032.31 1032.51 1032.64 1032.69 1032.68 1032.63 1032.56 1032.48 1032.42 1032.37 1032.34 1032.34 1032.34 1032.33 1032.32 1032.29 1032.23 1032.13 1032.01 1031.85 1031.64 1031.40 1031.12 1030.79 1030.41 1029.99 1029.53 1029.05 1028.55 1028.06 1027.57 1027.10 1026.66 1026.23 1025.81 1025.40
1032.10 1032.41 1032.67 1032.85 1032.95 1032.98 1032.94 1032.86 1032.76 1032.66 1032.57 1032.50 1032.47 1032.46 1032.46 1032.48 1032.50 1032.50 1032.48 1032.44 1032.35 1032.23 1032.06 1031.84 1031.57 1031.24 1030.87 1030.44 1029.97 1029.47 1028.96 1028.44 1027.93 1027.44 1026.97 1026.52 1026.08 1025.64
1032.41 1032.72 1032.96 1033.12 1033.21 1033.22 1033.18 1033.09 1032.98 1032.88 1032.78 1032.72 1032.68 1032.67 1032.68 1032.70 1032.72 1032.73 1032.72 1032.68 1032.60 1032.49 1032.32 1032.11 1031.85 1031.53 1031.16 1030.73 1030.27 1029.78 1029.27 1028.76 1028.26 1027.77 1027.30 1026.85 1026.40 1025.96
1032.62 1032.92 1033.15 1033.31 1033.39 1033.41 1033.37 1033.30 1033.22 1033.13 1033.06 1033.01 1032.98 1032.97 1032.97 1032.98 1032.98 1032.96 1032.92 1032.86 1032.76 1032.62 1032.44 1032.21 1031.94 1031.63 1031.26 1030.86 1030.42 1029.96 1029.48 1029.00 1028.52 1028.06 1027.61 1027.18 1026.75 1026.32
1032.67 1032.96 1033.19 1033.35 1033.44 1033.48 1033.48 1033.46 1033.42 1033.38 1033.35 1033.33 1033.32 1033.32 1033.31 1033.29 1033.25 1033.19 1033.10 1032.98 1032.83 1032.64 1032.43 1032.18 1031.89 1031.58 1031.23 1030.85 1030.44 1030.01 1029.58 1029.14 1028.71 1028.29 1027.87 1027.47 1027.07 1026.66
1032.52 1032.81 1033.04 1033.21 1033.33 1033.41 1033.46 1033.50 1033.53 1033.56 1033.59 1033.61 1033.63 1033.64 1033.62 1033.58 1033.50 1033.39 1033.24 1033.05 1032.84 1032.60 1032.34 1032.07 1031.77 1031.45 1031.12 1030.76 1030.39 1030.01 1029.62 1029.23 1028.84 1028.46 1028.09 1027.71 1027.33 1026.93
1032.14 1032.43 1032.67 1032.86 1033.02 1033.15 1033.27 1033.38 1033.49 1033.59 1033.69 1033.77 1033.84 1033.86 1033.85 1033.79 1033.68 1033.52 1033.32 1033.09 1032.83 1032.55 1032.25 1031.95 1031.65 1031.34 1031.02 1030.69 1030.36 1030.02 1029.67 1029.32 1028.97 1028.62 1028.26 1027.90 1027.53 1027.14
1031.55 1031.84 1032.10 1032.32 1032.52 1032.72 1032.91 1033.09 1033.28 1033.47 1033.64 1033.78 1033.89 1033.94 1033.94 1033.88 1033.76 1033.58 1033.36 1033.10 1032.81 1032.52 1032.21 1031.91 1031.61 1031.31 1031.02 1030.72 1030.41 1030.10 1029.78 1029.46 1029.12 1028.79 1028.44 1028.08 1027.70 1027.30
1030.78 1031.09 1031.37 1031.63 1031.88 1032.14 1032.39 1032.66 1032.92 1033.18 1033.41 1033.62 1033.77 1033.86 1033.89 1033.85 1033.74 1033.57 1033.35 1033.10 1032.82 1032.54 1032.25 1031.97 1031.69 1031.42 1031.15 1030.88 1030.60 1030.31 1030.00 1029.69 1029.35 1029.01 1028.65 1028.27 1027.88 1027.45
1029.89 1030.22 1030.53 1030.84 1031.15 1031.46 1031.78 1032.11 1032.44 1032.76 1033.05 1033.31 1033.50 1033.64 1033.71 1033.70 1033.63 1033.49 1033.31 1033.10 1032.87 1032.62 1032.38 1032.14 1031.90 1031.67 1031.43 1031.18 1030.91 1030.63 1030.33 1030.01 1029.67 1029.31 1028.92 1028.52 1028.10 1027.65
1028.94 1029.30 1029.66 1030.01 1030.37 1030.74 1031.12 1031.50 1031.88 1032.25 1032.59 1032.88 1033.13 1033.30 1033.41 1033.46 1033.44 1033.36 1033.24 1033.09 1032.93 1032.75 1032.56 1032.38 1032.19 1032.00 1031.79 1031.57 1031.32 1031.04 1030.74 1030.41 1030.06 1029.68 1029.28 1028.85 1028.40 1027.94
1027.98 1028.38 1028.79 1029.19 1029.60 1030.02 1030.45 1030.88 1031.29 1031.70 1032.07 1032.40 1032.68 1032.89 1033.05 1033.15 1033.19 1033.18 1033.14 1033.07 1032.98 1032.87 1032.76 1032.64 1032.51 1032.36 1032.18 1031.98 1031.75 1031.48 1031.19 1030.85 1030.49 1030.11 1029.69 1029.26 1028.81 1028.34
Thickness
5683 5682 5680 5679 5678 5676 5673 5669 5661 5654 5651 5654 5654 5655 5654 5653 5652 5650 5648 5647 5646 5645 5644 5642 5641 5640 5639 5638 5637 5636 5636 5635 5634 5634 5633 5632 5632 5631
5679 5677 5675 5675 5673 5672 5669 5667 5664 5658 5650 5649 5650 5650 5650 5648 5646 5645 5644 5642 5641 5639 5638 5637 5635 5634 5633 5631 5630 5629 5628 5627 5626 5625 5625 5624 5623 5623
5675 5673 5671 5670 5668 5667 5665 5662 5660 5656 5648 5646 5646 5646 5645 5643 5641 5641 5639 5638 5636 5634 5633 5631 5630 5628 5627 5625 5623 5622 5621 5620 5618 5617 5616 5616 5615 5615
5671 5669 5666 5666 5663 5662 5660 5658 5655 5653 5647 5641 5640 5640 5639 5639 5638 5636 5635 5634 5632 5630 5628 5626 5624 5623 5621 5619 5617 5615 5614 5612 5611 5610 5609 5608 5607 5606
5667 5664 5662 5661 5658 5657 5655 5653 5651 5650 5645 5640 5636 5636 5635 5635 5633 5632 5631 5629 5628 5626 5624 5621 5619 5617 5615 5612 5610 5608 5607 5605 5603 5602 5601 5599 5598 5597
5663 5660 5658 5656 5654 5653 5651 5649 5647 5643 5640 5636 5633 5631 5630 5629 5628 5625 5624 5624 5623 5622 5619 5617 5615 5612 5609 5606 5604 5601 5600 5598 5596 5594 5593 5591 5590 5589
5657 5655 5653 5652 5651 5649 5647 5644 5642 5638 5635 5632 5628 5626 5624 5622 5621 5621 5619 5618 5617 5616 5614 5612 5610 5607 5603 5600 5598 5595 5593 5591 5589 5587 5585 5583 5582 5580
5652 5651 5649 5647 5646 5644 5642 5640 5638 5635 5631 5628 5624 5621 5619 5619 5618 5618 5614 5612 5609 5610 5608 5606 5605 5601 5598 5595 5593 5590 5587 5584 5582 5580 5578 5575 5573 5572
5650 5648 5646 5643 5641 5639 5637 5635 5633 5631 5630 5626 5621 5619 5617 5616 5615 5613 5610 5607 5604 5604 5602 5599 5598 5595 5593 5590 5588 5584 5581 5578 5575 5573 5570 5568 5565 5563
5646 5644 5641 5638 5637 5634 5632 5629 5627 5625 5625 5622 5620 5618 5616 5615 5613 5611 5608 5605 5602 5600 5597 5591 5590 5589 5587 5584 5581 5578 5575 5571 5568 5566 5563 5561 5558 5556
5641 5640 5637 5634 5633 5631 5628 5624 5622 5620 5619 5618 5617 5615 5614 5612 5609 5606 5602 5598 5593 5591 5590 5586 5583 5581 5580 5577 5574 5571 5568 5565 5562 5559 5556 5554 5551 5549
5636 5634 5633 5631 5629 5627 5623 5621 5617 5616 5615 5612 5611 5609 5608 5606 5603 5601 5597 5592 5587 5584 5583 5580 5577 5574 5571 5570 5567 5564 5561 5558 5555 5552 5549 5546 5544 5541
5631 5628 5627 5626 5624 5622 5620 5617 5615 5613 5611 5608 5606 5603 5601 5599 5597 5594 5592 5588 5583 5579 5579 5575 5570 5567 5562 5560 5559 5557 5554 5551 5547 5545 5542 5539 5537 5534
5627 5625 5623 5621 5619 5617 5615 5613 5612 5610 5606 5603 5600 5597 5595 5592 5590 5588 5585 5583 5580 5576 5573 5570 5564 5560 5555 5551 5549 5549 5547 5544 5541 5538 5535 5532 5530 5527
5624 5621 5619 5616 5614 5611 5610 5608 5606 5604 5601 5597 5594 5592 5590 5588 5585 5582 5578 5575 5573 5570 5567 5563 5559 5555 5551 5546 5543 5541 5539 5537 5535 5532 5528 5525 5523 5520
5618 5616 5614 5611 5608 5606 5604 5602 5600 5598 5596 5593 5590 5588 5585 5582 5578 5576 5571 5568 5564 5562 5560 5557 5554 5549 5544 5542 5538 5534 5532 5529 5528 5525 5522 5519 5516 5513
5613 5609 5606 5603 5601 5599 5598 5596 5594 5593 5591 5588 5585 5582 5579 5576 5572 5569 5565 5561 5557 5554 5551 5549 5547 5543 5540 5536 5532 5529 5526 5523 5521 5518 5515 5511 5509 5506
5610 5606 5603 5600 5598 5596 5593 5591 5589 5587 5586 5583 5580 5577 5574 5570 5566 5563 5559 5555 5551 5548 5545 5542 5538 5534 5531 5529 5527 5524 5520 5517 5515 5512 5508 5504 5501 5499
5605 5603 5600 5598 5595 5593 5590 5587 5585 5584 5581 5578 5575 5572 5568 5565 5561 5557 5552 5549 5545 5542 5539 5535 5531 5526 5521 5520 5520 5518 5514 5512 5508 5505 5502 5498 5495 5493
5601 5599 5597 5595 5592 5590 5587 5584 5582 5579 5577 5574 5570 5567 5563 5559 5555 5551 5547 5543 5540 5535 5532 5528 5524 5520 5517 5514 5512 5512 5509 5505 5502 5498 5496 5493 5489 5486
5598 5596 5594 5592 5590 5587 5584 5581 5578 5575 5572 5569 5565 5562 5558 5554 5550 5546 5542 5539 5534 5530 5526 5523 5520 5516 5513 5509 5505 5505 5503 5500 5497 5493 5490 5485 5481 5478
5595 5593 5590 5588 5586 5583 5580 5577 5574 5570 5567 5564 5560 5557 5553 5549 5545 5541 5537 5533 5529 5525 5521 5518 5514 5510 5506 5503 5501 5499 5496 5493 5490 5487 5484 5480 5475 5471
5591 5589 5587 5584 5581 5578 5575 5572 5569 5566 5563 5559 5556 5552 5548 5544 5540 5536 5533 5528 5524 5520 5515 5511 5507 5504 5501 5498 5495 5493 5490 5487 5483 5480 5477 5474 5470 5466